Location: Hines Observatory
(31.5604°N, 83.5172°W)
Time: 07:22:08
(UTC-05:00)

Daily predictions for brighter satellites

Satellite Brightness Start Highest point End
(mag) Time Altitude Azimuth Time Altitude Azimuth Time Altitude Azimuth
Cosmos 1741 Rocket 4.4 18:45:04 10° S 18:49:58 43° ESE 18:54:53 10° NNE
FREGAT/IRIS 4.0 18:48:44 10° ESE 18:51:03 20° ENE 18:53:22 10° NNE
Cosmos 2322 Rocket 2.7 18:47:18 10° NNW 18:52:52 66° WSW 18:58:25 10° S
Meteor 1-28 Rocket 3.5 18:49:23 10° N 18:53:12 74° W 18:57:00 10° SSW
Tiangong 2 1.1 18:51:35 10° WNW 18:54:40 82° SW 18:57:44 10° SE
Cosmos 1484 Rocket 3.7 18:51:00 10° S 18:54:52 55° W 18:58:44 10° NNW
GPS 2-04 Rocket1 3.0 18:53:12 10° W 18:57:24 71° NNW 19:01:44 10° ENE
Cosmos 1536 Rocket 3.5 18:55:10 10° N 18:59:39 74° E 19:04:06 10° S
Cosmos 1461 3.7 18:56:03 10° NW 19:00:00 54° WSW 19:04:05 10° SSE
GEOS 3 Rocket 4.2 18:55:16 10° NE 19:00:09 38° ESE 19:05:02 10° S
Cosmos 1633 2.5 18:58:01 10° S 19:01:41 86° E 19:05:23 10° N
Cosmos 1140 Rocket 3.7 18:58:39 10° SSW 19:03:45 75° WNW 19:08:54 10° NNE
METEOR-M 4.2 18:59:23 10° SSE 19:04:37 58° ENE 19:09:51 10° N
Cosmos 614 Rocket 3.9 19:01:53 10° SSW 19:06:58 85° ESE 19:12:03 10° NNE
Hubble Space Telescope 1.8 19:05:46 10° SW 19:09:32 35° SSE 19:12:51 12° ESE
SJ-6B 3.1 19:07:55 10° SSE 19:11:45 45° ENE 19:15:31 10° N
ATLAS CENTAUR R/B 2.7 19:05:42 10° SSW 19:12:07 37° SE 19:14:33 14° ENE
Cosmos 2322 3.8 19:07:10 10° N 19:12:46 55° ENE 19:18:19 10° SE
Meteor 1-19 Rocket 4.3 19:11:33 10° N 19:17:14 63° E 19:22:58 10° SSE
ATLAS 2A CENTAUR R/B 2.4 19:15:08 10° WSW 19:17:18 31° S 19:22:35 11° ESE
Cosmos 1300 Rocket 3.9 19:15:28 10° SSW 19:19:50 69° W 19:24:16 10° N
H-2A R/B 3.7 19:22:46 13° ESE 19:25:09 24° ENE 19:28:13 10° NNE
Spot 2 Rocket 4.1 19:20:41 10° SE 19:25:10 34° ENE 19:29:42 10° N
Cosmos 2297 Rocket 3.5 19:22:51 10° SE 19:26:19 17° E 19:26:19 17° E
Cosmos 2237 Rocket 4.1 19:26:41 10° NE 19:28:14 11° NE 19:28:14 11° NE
DELTA 2 R/B (1) 3.6 19:24:05 10° WNW 19:29:43 82° NNE 19:33:54 18° ESE
COSMOS 2428 3.2 19:25:05 10° N 19:30:23 39° ENE 19:35:30 11° SE
Cosmos 2237 4.4 19:24:50 10° N 19:30:25 51° ENE 19:35:56 10° SE
Helios 1B rocket 3.4 19:28:54 10° NE 19:32:24 26° E 19:35:52 10° SSE
Resurs 01 Rocket 2.0 19:29:48 10° SE 19:33:55 41° ENE 19:38:03 10° N
Cosmos 1238 Rocket 2.9 19:32:14 10° NNW 19:35:07 54° W 19:38:12 10° S
Atlas Centaur 2 3.8 19:28:59 10° SSW 19:35:09 27° SSE 19:38:25 18° ESE
Meteor 2-4 Rocket 3.6 19:29:49 10° N 19:35:15 63° E 19:40:33 10° SSE
Meteor 1-13 Rocket 4.5 19:31:10 10° NNW 19:36:45 73° W 19:42:25 10° S
Meteor 1-23 Rocket 4.3 19:32:41 10° N 19:38:21 54° E 19:43:54 10° SSE
Cosmos 1536 3.3 19:36:56 10° SSW 19:40:52 61° W 19:44:48 10° N
Cosmos 2327 Rocket 4.4 19:35:55 10° S 19:42:04 71° E 19:48:21 10° N
Cosmos 2360 Rocket 2.5 19:36:43 10° NNW 19:42:20 68° WSW 19:47:56 10° S
Cosmos 2208 Rocket 4.1 19:37:16 10° N 19:42:39 60° ENE 19:47:56 10° SSE
Cosmos 2219 Rocket 3.1 19:38:05 10° N 19:42:45 26° ENE 19:43:37 25° ENE
Cosmos 2219 3.7 19:37:12 10° SSW 19:42:52 63° WNW 19:48:34 10° NNE
HJ-1C 3.2 19:42:05 10° SSE 19:45:27 83° ENE 19:48:49 10° N
Cosmos 2227 Rocket 2.7 19:41:13 10° S 19:46:19 36° ESE 19:49:26 21° NE
Resurs 1-3 3.8 19:42:36 10° SSE 19:46:48 48° ENE 19:51:02 10° N
Skynet4D Del rocket 4.1 19:43:33 10° WSW 19:48:37 42° S 19:50:49 28° ESE
KM-V1 4.5 19:51:09 10° W 19:58:16 81° S 19:59:14 51° E
Cosmos 2074 Rocket 4.2 19:55:34 10° SSW 20:01:46 72° W 20:08:03 10° N
OTV 4 1.1 19:59:44 10° W 20:02:21 52° NW 20:02:21 52° NW
Cosmos 2184 Rocket 4.3 20:00:48 10° SSW 20:07:05 68° W 20:13:19 10° N
Cosmos 1486 Rocket 4.2 20:02:48 10° S 20:07:54 48° ESE 20:07:58 48° E
Cosmos 1892 Rocket 4.4 20:04:03 10° N 20:06:48 34° NNE 20:06:48 34° NNE
ALOS 3.1 20:05:44 10° S 20:10:16 52° W 20:14:49 10° NNW
Cosmos 1025 Rocket 3.5 20:10:29 10° NNW 20:14:49 60° W 20:19:08 10° S
Cosmos 2333 Rocket 2.6 20:19:15 10° N 20:23:54 45° NE 20:23:54 45° NE
Cosmos 1544 Rocket 3.8 20:22:42 10° SSW 20:27:00 67° W 20:31:18 10° N
Nadezhda 3 Rocket 3.8 20:25:10 10° N 20:31:18 69° E 20:31:36 68° ESE
Cosmos 2341 Rocket 3.9 20:27:16 10° S 20:33:35 74° E 20:39:58 10° N
Cosmos 2154 Rocket 4.1 20:30:01 10° S 20:36:21 77° W 20:42:43 10° N
GPS 2-04 Rocket1 4.1 20:33:25 10° WNW 20:36:30 38° NW 20:36:30 38° NW
NOSS 0 Rocket 4.0 20:36:48 10° NNW 20:42:06 64° NNE 20:42:06 64° NNE
Cosmos 2285 Rocket 4.3 20:37:22 10° NNW 20:43:44 64° WSW 20:47:08 28° S
OAO 3 Rocket 4.0 20:40:01 10° WSW 20:43:34 48° WSW 20:43:34 48° WSW
Cosmos 2082 3.9 20:42:00 10° SSW 20:47:41 69° WNW 20:48:27 61° NNW
Hubble Space Telescope 2.9 20:46:28 10° WSW 20:48:14 24° WSW 20:48:14 24° WSW
Cosmos 2297 Rocket 3.3 21:04:23 10° SW 21:08:19 39° WSW 21:08:19 39° WSW
DASH 4.5 20:49:14 10° WSW 21:11:56 56° S 21:11:56 56° S
Cosmos 2237 Rocket 3.7 21:07:30 10° NNW 21:10:07 28° NNW 21:10:07 28° NNW
USA 229 DEB 4.4 21:09:48 10° NW 21:16:41 50° WSW 21:17:25 49° SW
USA 229 4.4 21:09:54 10° NW 21:16:48 51° WSW 21:17:27 49° SW
Atlas Centaur 2 3.9 21:17:35 10° WSW 21:21:05 29° SW 21:21:05 29° SW
Cosmos 2219 Rocket 3.8 21:21:40 10° NW 21:25:25 30° WNW 21:25:25 30° WNW
Cosmos 2227 Rocket 4.2 21:25:51 10° WSW 21:30:22 24° WNW 21:31:29 23° NW
CZ-3 Stage 3 3.9 21:06:26 10° WSW 21:32:49 59° SSW 21:32:49 59° SSW
